Year,Month,Day,Hour,Minute,Value (Times are PST for temperature in C)
2023,03,27,00,00,3.80
2023,03,27,00,01,3.80
2023,03,27,00,02,3.80
2023,03,27,00,03,3.80
2023,03,27,00,04,3.80
2023,03,27,00,05,3.80
2023,03,27,00,06,3.80
2023,03,27,00,07,3.80
2023,03,27,00,08,3.80
2023,03,27,00,09,3.80
2023,03,27,00,10,3.80
2023,03,27,00,11,3.80
2023,03,27,00,12,3.80
2023,03,27,00,13,3.80
2023,03,27,00,14,3.80
2023,03,27,00,15,3.90
2023,03,27,00,16,3.90
2023,03,27,00,17,3.90
2023,03,27,00,18,3.90
2023,03,27,00,19,3.90
2023,03,27,00,20,4.00
2023,03,27,00,21,4.00
2023,03,27,00,22,4.10
2023,03,27,00,23,4.10
2023,03,27,00,24,4.10
2023,03,27,00,25,4.10
2023,03,27,00,26,4.20
2023,03,27,00,27,4.20
2023,03,27,00,28,4.20
2023,03,27,00,29,4.20
2023,03,27,00,30,4.30
2023,03,27,00,31,4.30
2023,03,27,00,32,4.30
2023,03,27,00,33,4.30
2023,03,27,00,34,4.30
2023,03,27,00,35,4.40
2023,03,27,00,36,4.40
2023,03,27,00,37,4.40
2023,03,27,00,38,4.40
2023,03,27,00,39,4.40
2023,03,27,00,40,4.40
2023,03,27,00,41,4.40
2023,03,27,00,42,4.40
2023,03,27,00,43,4.40
2023,03,27,00,44,4.40
2023,03,27,00,45,4.40
2023,03,27,00,46,4.40
2023,03,27,00,47,4.40
2023,03,27,00,48,4.40
2023,03,27,00,49,4.40
2023,03,27,00,50,4.40
2023,03,27,00,51,4.40
2023,03,27,00,52,4.40
2023,03,27,00,53,4.30
2023,03,27,00,54,4.30
2023,03,27,00,55,4.30
2023,03,27,00,56,4.30
2023,03,27,00,57,4.30
2023,03,27,00,58,4.30
2023,03,27,00,59,4.30
2023,03,27,01,00,4.20
2023,03,27,01,01,4.20
2023,03,27,01,02,4.20
2023,03,27,01,03,4.20
2023,03,27,01,04,4.20
2023,03,27,01,05,4.20
2023,03,27,01,06,4.20
2023,03,27,01,07,4.10
2023,03,27,01,08,4.10
2023,03,27,01,09,4.10
2023,03,27,01,10,4.10
2023,03,27,01,11,4.10
2023,03,27,01,12,4.10
2023,03,27,01,13,4.10
2023,03,27,01,14,4.10
2023,03,27,01,15,4.10
2023,03,27,01,16,4.10
2023,03,27,01,17,4.10
2023,03,27,01,18,4.10
2023,03,27,01,19,4.10
2023,03,27,01,20,4.10
2023,03,27,01,21,4.10
2023,03,27,01,22,4.10
2023,03,27,01,23,4.10
2023,03,27,01,24,4.10
2023,03,27,01,25,4.10
2023,03,27,01,26,4.10
2023,03,27,01,27,4.20
2023,03,27,01,28,4.20
2023,03,27,01,29,4.20
2023,03,27,01,30,4.20
2023,03,27,01,31,4.20
2023,03,27,01,32,4.20
2023,03,27,01,33,4.20
2023,03,27,01,34,4.20
2023,03,27,01,35,4.20
2023,03,27,01,36,4.30
2023,03,27,01,37,4.30
2023,03,27,01,38,4.30
2023,03,27,01,39,4.30
2023,03,27,01,40,4.30
2023,03,27,01,41,4.20
2023,03,27,01,42,4.20
2023,03,27,01,43,4.20
2023,03,27,01,44,4.20
2023,03,27,01,45,4.20
2023,03,27,01,46,4.20
2023,03,27,01,47,4.20
2023,03,27,01,48,4.10
2023,03,27,01,49,4.10
2023,03,27,01,50,4.10
2023,03,27,01,51,4.00
2023,03,27,01,52,4.00
2023,03,27,01,53,3.90
2023,03,27,01,54,3.90
2023,03,27,01,55,3.90
2023,03,27,01,56,3.80
2023,03,27,01,57,3.80
2023,03,27,01,58,3.80
2023,03,27,01,59,3.70
2023,03,27,02,00,3.70
2023,03,27,02,01,3.60
2023,03,27,02,02,3.60
2023,03,27,02,03,3.60
2023,03,27,02,04,3.50
2023,03,27,02,05,3.50
2023,03,27,02,06,3.50
2023,03,27,02,07,3.40
2023,03,27,02,08,3.40
2023,03,27,02,09,3.40
2023,03,27,02,10,3.30
2023,03,27,02,11,3.30
2023,03,27,02,12,3.30
2023,03,27,02,13,3.30
2023,03,27,02,14,3.20
2023,03,27,02,15,3.20
2023,03,27,02,16,3.20
2023,03,27,02,17,3.20
2023,03,27,02,18,3.20
2023,03,27,02,19,3.10
2023,03,27,02,20,3.10
2023,03,27,02,21,3.10
2023,03,27,02,22,3.10
2023,03,27,02,23,3.10
2023,03,27,02,24,3.00
2023,03,27,02,25,3.00
2023,03,27,02,26,3.00
2023,03,27,02,27,3.00
2023,03,27,02,28,3.00
2023,03,27,02,29,3.00
2023,03,27,02,30,2.90
2023,03,27,02,31,2.90
2023,03,27,02,32,3.00
2023,03,27,02,33,3.00
2023,03,27,02,34,3.00
2023,03,27,02,35,3.00
2023,03,27,02,36,3.00
2023,03,27,02,37,3.00
2023,03,27,02,38,3.00
2023,03,27,02,39,3.10
2023,03,27,02,40,3.10
2023,03,27,02,41,3.10
2023,03,27,02,42,3.10
2023,03,27,02,43,3.10
2023,03,27,02,44,3.10
2023,03,27,02,45,3.10
2023,03,27,02,46,3.10
2023,03,27,02,47,3.10
2023,03,27,02,48,3.10
2023,03,27,02,49,3.10
2023,03,27,02,50,3.10
2023,03,27,02,51,3.10
2023,03,27,02,52,3.10
2023,03,27,02,53,3.10
2023,03,27,02,54,3.10
2023,03,27,02,55,3.10
2023,03,27,02,56,3.20
2023,03,27,02,57,3.20
2023,03,27,02,58,3.20
2023,03,27,02,59,3.20
2023,03,27,03,00,3.30
2023,03,27,03,01,3.30
2023,03,27,03,02,3.30
2023,03,27,03,03,3.30
2023,03,27,03,04,3.40
2023,03,27,03,05,3.40
2023,03,27,03,06,3.40
2023,03,27,03,07,3.40
2023,03,27,03,08,3.50
2023,03,27,03,09,3.50
2023,03,27,03,10,3.50
2023,03,27,03,11,3.50
2023,03,27,03,12,3.50
2023,03,27,03,13,3.50
2023,03,27,03,14,3.60
2023,03,27,03,15,3.50
2023,03,27,03,16,3.50
2023,03,27,03,17,3.50
2023,03,27,03,18,3.60
2023,03,27,03,19,3.60
2023,03,27,03,20,3.60
2023,03,27,03,21,3.60
2023,03,27,03,22,3.60
2023,03,27,03,23,3.60
2023,03,27,03,24,3.60
2023,03,27,03,25,3.60
2023,03,27,03,26,3.70
2023,03,27,03,27,3.70
2023,03,27,03,28,3.70
2023,03,27,03,29,3.70
2023,03,27,03,30,3.60
2023,03,27,03,31,3.60
2023,03,27,03,32,3.60
2023,03,27,03,33,3.60
2023,03,27,03,34,3.60
2023,03,27,03,35,3.60
2023,03,27,03,36,3.60
2023,03,27,03,37,3.50
2023,03,27,03,38,3.50
2023,03,27,03,39,3.50
2023,03,27,03,40,3.50
2023,03,27,03,41,3.50
2023,03,27,03,42,3.40
2023,03,27,03,43,3.50
2023,03,27,03,44,3.50
2023,03,27,03,45,3.50
2023,03,27,03,46,3.50
2023,03,27,03,47,3.60
2023,03,27,03,48,3.60
2023,03,27,03,49,3.60
2023,03,27,03,50,3.60
2023,03,27,03,51,3.60
2023,03,27,03,52,3.60
2023,03,27,03,53,3.60
2023,03,27,03,54,3.70
2023,03,27,03,55,3.70
2023,03,27,03,56,3.70
2023,03,27,03,57,3.80
2023,03,27,03,58,3.80
2023,03,27,03,59,3.80
2023,03,27,04,00,3.80
2023,03,27,04,01,3.90
2023,03,27,04,02,3.90
2023,03,27,04,03,3.90
2023,03,27,04,04,3.90
2023,03,27,04,05,3.90
2023,03,27,04,06,3.90
2023,03,27,04,07,3.90
2023,03,27,04,08,3.90
2023,03,27,04,09,3.90
2023,03,27,04,10,3.80
2023,03,27,04,11,3.80
2023,03,27,04,12,3.80
2023,03,27,04,13,3.80
2023,03,27,04,14,3.80
2023,03,27,04,15,3.80
2023,03,27,04,16,3.80
2023,03,27,04,17,3.80
2023,03,27,04,18,3.80
2023,03,27,04,19,3.70
2023,03,27,04,20,3.70
2023,03,27,04,21,3.70
2023,03,27,04,22,3.70
2023,03,27,04,23,3.70
2023,03,27,04,24,3.60
2023,03,27,04,25,3.60
2023,03,27,04,26,3.60
2023,03,27,04,27,3.60
2023,03,27,04,28,3.50
2023,03,27,04,29,3.50
2023,03,27,04,30,3.50
2023,03,27,04,31,3.40
2023,03,27,04,32,3.40
2023,03,27,04,33,3.40
2023,03,27,04,34,3.40
2023,03,27,04,35,3.30
2023,03,27,04,36,3.30
2023,03,27,04,37,3.30
2023,03,27,04,38,3.30
2023,03,27,04,39,3.30
2023,03,27,04,40,3.30
2023,03,27,04,41,3.20
2023,03,27,04,42,3.20
2023,03,27,04,43,3.20
2023,03,27,04,44,3.20
2023,03,27,04,45,3.10
2023,03,27,04,46,3.10
2023,03,27,04,47,3.10
2023,03,27,04,48,3.10
2023,03,27,04,49,3.00
2023,03,27,04,50,3.00
2023,03,27,04,51,3.00
2023,03,27,04,52,2.90
2023,03,27,04,53,2.90
2023,03,27,04,54,2.90
2023,03,27,04,55,2.90
2023,03,27,04,56,2.90
2023,03,27,04,57,2.90
2023,03,27,04,58,2.90
2023,03,27,04,59,2.90
2023,03,27,05,00,2.90
2023,03,27,05,01,2.90
2023,03,27,05,02,2.90
2023,03,27,05,03,2.90
2023,03,27,05,04,2.90
2023,03,27,05,05,2.90
2023,03,27,05,06,3.00
2023,03,27,05,07,3.00
2023,03,27,05,08,3.00
2023,03,27,05,09,3.10
2023,03,27,05,10,3.10
2023,03,27,05,11,3.10
2023,03,27,05,12,3.20
2023,03,27,05,13,3.20
2023,03,27,05,14,3.20
2023,03,27,05,15,3.20
2023,03,27,05,16,3.20
2023,03,27,05,17,3.30
2023,03,27,05,18,3.30
2023,03,27,05,19,3.30
2023,03,27,05,20,3.30
2023,03,27,05,21,3.30
2023,03,27,05,22,3.30
2023,03,27,05,23,3.40
2023,03,27,05,24,3.40
2023,03,27,05,25,3.40
2023,03,27,05,26,3.40
2023,03,27,05,27,3.40
2023,03,27,05,28,3.40
2023,03,27,05,29,3.40
2023,03,27,05,30,3.40
2023,03,27,05,31,3.40
2023,03,27,05,32,3.40
2023,03,27,05,33,3.40
2023,03,27,05,34,3.40
2023,03,27,05,35,3.40
2023,03,27,05,36,3.30
2023,03,27,05,37,3.30
2023,03,27,05,38,3.30
2023,03,27,05,39,3.30
2023,03,27,05,40,3.20
2023,03,27,05,41,3.20
2023,03,27,05,42,3.20
2023,03,27,05,43,3.20
2023,03,27,05,44,3.20
2023,03,27,05,45,3.20
2023,03,27,05,46,3.20
2023,03,27,05,47,3.20
2023,03,27,05,48,3.20
2023,03,27,05,49,3.20
2023,03,27,05,50,3.20
2023,03,27,05,51,3.20
2023,03,27,05,52,3.20
2023,03,27,05,53,3.20
2023,03,27,05,54,3.30
2023,03,27,05,55,3.30
2023,03,27,05,56,3.30
2023,03,27,05,57,3.30
2023,03,27,05,58,3.30
2023,03,27,05,59,3.30
2023,03,27,06,00,3.20
2023,03,27,06,01,3.20
2023,03,27,06,02,3.20
2023,03,27,06,03,3.20
2023,03,27,06,04,3.10
2023,03,27,06,05,3.10
2023,03,27,06,06,3.10
2023,03,27,06,07,3.10
2023,03,27,06,08,3.00
2023,03,27,06,09,3.00
2023,03,27,06,10,3.00
2023,03,27,06,11,3.00
2023,03,27,06,12,3.00
2023,03,27,06,13,3.00
2023,03,27,06,14,3.00
2023,03,27,06,15,3.00
2023,03,27,06,16,3.00
2023,03,27,06,17,3.00
2023,03,27,06,18,3.00
2023,03,27,06,19,3.00
2023,03,27,06,20,3.00
2023,03,27,06,21,2.90
2023,03,27,06,22,2.90
2023,03,27,06,23,2.90
2023,03,27,06,24,2.90
2023,03,27,06,25,2.80
2023,03,27,06,26,2.80
2023,03,27,06,27,2.80
2023,03,27,06,28,2.80
2023,03,27,06,29,2.70
2023,03,27,06,30,2.70
2023,03,27,06,31,2.70
2023,03,27,06,32,2.70
2023,03,27,06,33,2.70
2023,03,27,06,34,2.80
2023,03,27,06,35,2.80
2023,03,27,06,36,2.80
2023,03,27,06,37,2.80
2023,03,27,06,38,2.80
2023,03,27,06,39,2.80
2023,03,27,06,40,2.80
2023,03,27,06,41,2.80
2023,03,27,06,42,2.80
2023,03,27,06,43,2.80
2023,03,27,06,44,2.80
2023,03,27,06,45,2.80
2023,03,27,06,46,2.80
2023,03,27,06,47,2.80
2023,03,27,06,48,2.80
2023,03,27,06,49,2.80
2023,03,27,06,50,2.80
2023,03,27,06,51,2.80
2023,03,27,06,52,2.80
2023,03,27,06,53,2.80
2023,03,27,06,54,2.80
2023,03,27,06,55,2.80
2023,03,27,06,56,2.70
2023,03,27,06,57,2.70
2023,03,27,06,58,2.70
2023,03,27,06,59,2.70
2023,03,27,07,00,2.70
2023,03,27,07,01,2.70
2023,03,27,07,02,2.60
2023,03,27,07,03,2.60
2023,03,27,07,04,2.60
2023,03,27,07,05,2.60
2023,03,27,07,06,2.60
2023,03,27,07,07,2.60
2023,03,27,07,08,2.60
2023,03,27,07,09,2.60
2023,03,27,07,10,2.60
2023,03,27,07,11,2.60
2023,03,27,07,12,2.60
2023,03,27,07,13,2.60
2023,03,27,07,14,2.60
2023,03,27,07,15,2.70
2023,03,27,07,16,2.70
2023,03,27,07,17,2.70
2023,03,27,07,18,2.70
2023,03,27,07,19,2.70
2023,03,27,07,20,2.80
2023,03,27,07,21,2.80
2023,03,27,07,22,2.80
2023,03,27,07,23,2.90
2023,03,27,07,24,2.90
2023,03,27,07,25,2.90
2023,03,27,07,26,2.90
2023,03,27,07,27,3.00
2023,03,27,07,28,3.10
2023,03,27,07,29,3.10
2023,03,27,07,30,3.20
2023,03,27,07,31,3.20
2023,03,27,07,32,3.20
2023,03,27,07,33,3.30
2023,03,27,07,34,3.30
2023,03,27,07,35,3.40
2023,03,27,07,36,3.50
2023,03,27,07,37,3.50
2023,03,27,07,38,3.60
2023,03,27,07,39,3.60
2023,03,27,07,40,3.70
2023,03,27,07,41,3.70
2023,03,27,07,42,3.80
2023,03,27,07,43,3.80
2023,03,27,07,44,3.80
2023,03,27,07,45,3.90
2023,03,27,07,46,3.90
2023,03,27,07,47,4.00
2023,03,27,07,48,4.10
2023,03,27,07,49,4.10
2023,03,27,07,50,4.20
2023,03,27,07,51,4.20
2023,03,27,07,52,4.30
2023,03,27,07,53,4.30
2023,03,27,07,54,4.30
2023,03,27,07,55,4.40
2023,03,27,07,56,4.40
2023,03,27,07,57,4.50
2023,03,27,07,58,4.50
2023,03,27,07,59,4.60
2023,03,27,08,00,4.70
2023,03,27,08,01,4.70
2023,03,27,08,02,4.70
2023,03,27,08,03,4.80
2023,03,27,08,04,4.80
2023,03,27,08,05,4.80
2023,03,27,08,06,4.90
2023,03,27,08,07,4.90
2023,03,27,08,08,4.90
2023,03,27,08,09,4.90
2023,03,27,08,10,4.90
2023,03,27,08,11,4.90
2023,03,27,08,12,4.90
2023,03,27,08,13,4.90
2023,03,27,08,14,5.00
2023,03,27,08,15,5.10
2023,03,27,08,16,5.20
2023,03,27,08,17,5.20
2023,03,27,08,18,5.30
2023,03,27,08,19,5.40
2023,03,27,08,20,5.50
2023,03,27,08,21,5.60
2023,03,27,08,22,5.60
2023,03,27,08,23,5.70
2023,03,27,08,24,5.70
2023,03,27,08,25,5.80
2023,03,27,08,26,5.80
2023,03,27,08,27,5.80
2023,03,27,08,28,5.80
2023,03,27,08,29,5.90
2023,03,27,08,30,5.90
2023,03,27,08,31,5.90
2023,03,27,08,32,5.90
2023,03,27,08,33,6.00
2023,03,27,08,34,6.10
2023,03,27,08,35,6.10
2023,03,27,08,36,6.20
2023,03,27,08,37,6.30
2023,03,27,08,38,6.40
2023,03,27,08,39,6.40
2023,03,27,08,40,6.30
2023,03,27,08,41,6.30
2023,03,27,08,42,6.30
2023,03,27,08,43,6.20
2023,03,27,08,44,6.10
2023,03,27,08,45,6.00
2023,03,27,08,46,5.90
2023,03,27,08,47,5.80
2023,03,27,08,48,5.70
2023,03,27,08,49,5.60
2023,03,27,08,50,5.50
2023,03,27,08,51,5.40
2023,03,27,08,52,5.40
2023,03,27,08,53,5.30
2023,03,27,08,54,5.30
2023,03,27,08,55,5.30
2023,03,27,08,56,5.20
2023,03,27,08,57,5.20
2023,03,27,08,58,5.20
2023,03,27,08,59,5.20
2023,03,27,09,00,5.20
2023,03,27,09,01,5.20
2023,03,27,09,02,5.30
2023,03,27,09,03,5.40
2023,03,27,09,04,5.50
2023,03,27,09,05,5.50
2023,03,27,09,06,5.60
2023,03,27,09,07,5.60
2023,03,27,09,08,5.60
2023,03,27,09,09,5.70
2023,03,27,09,10,5.80
2023,03,27,09,11,5.90
2023,03,27,09,12,6.00
2023,03,27,09,13,6.20
2023,03,27,09,14,6.20
2023,03,27,09,15,6.30
2023,03,27,09,16,6.40
2023,03,27,09,17,6.40
2023,03,27,09,18,6.50
2023,03,27,09,19,6.60
2023,03,27,09,20,6.60
2023,03,27,09,21,6.60
2023,03,27,09,22,6.60
2023,03,27,09,23,6.60
2023,03,27,09,24,6.60
2023,03,27,09,25,6.60
2023,03,27,09,26,6.70
2023,03,27,09,27,6.70
2023,03,27,09,28,6.80
2023,03,27,09,29,6.80
2023,03,27,09,30,6.70
2023,03,27,09,31,6.60
2023,03,27,09,32,6.50
2023,03,27,09,33,6.40
2023,03,27,09,34,6.50
2023,03,27,09,35,6.50
2023,03,27,09,36,6.60
2023,03,27,09,37,6.70
2023,03,27,09,38,6.80
2023,03,27,09,39,6.80
2023,03,27,09,40,6.90
2023,03,27,09,41,6.90
2023,03,27,09,42,7.00
2023,03,27,09,43,6.90
2023,03,27,09,44,6.90
2023,03,27,09,45,6.90
2023,03,27,09,46,6.90
2023,03,27,09,47,6.80
2023,03,27,09,48,6.70
2023,03,27,09,49,6.60
2023,03,27,09,50,6.50
2023,03,27,09,51,6.40
2023,03,27,09,52,6.40
2023,03,27,09,53,6.50
2023,03,27,09,54,6.60
2023,03,27,09,55,6.60
2023,03,27,09,56,6.70
2023,03,27,09,57,6.70
2023,03,27,09,58,6.70
2023,03,27,09,59,6.70
2023,03,27,10,00,6.70
2023,03,27,10,01,6.70
2023,03,27,10,02,6.70
2023,03,27,10,03,6.70
2023,03,27,10,04,6.70
2023,03,27,10,05,6.80
2023,03,27,10,06,6.70
2023,03,27,10,07,6.60
2023,03,27,10,08,6.40
2023,03,27,10,09,6.40
2023,03,27,10,10,6.50
2023,03,27,10,11,6.60
2023,03,27,10,12,6.70
2023,03,27,10,13,6.80
2023,03,27,10,14,6.80
2023,03,27,10,15,6.70
2023,03,27,10,16,6.70
2023,03,27,10,17,6.70
2023,03,27,10,18,6.80
2023,03,27,10,19,6.80
2023,03,27,10,20,6.80
2023,03,27,10,21,6.80
2023,03,27,10,22,6.80
2023,03,27,10,23,6.80
2023,03,27,10,24,6.80
2023,03,27,10,25,6.80
2023,03,27,10,26,6.80
2023,03,27,10,27,6.80
2023,03,27,10,28,6.90
2023,03,27,10,29,6.90
2023,03,27,10,30,6.90
2023,03,27,10,31,6.90
2023,03,27,10,32,6.80
2023,03,27,10,33,6.80
2023,03,27,10,34,6.80
2023,03,27,10,35,6.70
2023,03,27,10,36,6.60
2023,03,27,10,37,6.70
2023,03,27,10,38,6.70
2023,03,27,10,39,6.80
2023,03,27,10,40,6.80
2023,03,27,10,41,6.90
2023,03,27,10,42,7.00
2023,03,27,10,43,7.10
2023,03,27,10,44,7.20
2023,03,27,10,45,7.30
2023,03,27,10,46,7.30
2023,03,27,10,47,7.30
2023,03,27,10,48,7.20
2023,03,27,10,49,7.20
2023,03,27,10,50,7.20
2023,03,27,10,51,7.10
2023,03,27,10,52,7.20
2023,03,27,10,53,7.10
2023,03,27,10,54,7.10
2023,03,27,10,55,7.00
2023,03,27,10,56,7.00
2023,03,27,10,57,7.00
2023,03,27,10,58,7.00
2023,03,27,10,59,7.10
2023,03,27,11,00,7.10
2023,03,27,11,01,7.20
2023,03,27,11,02,7.30
2023,03,27,11,03,7.30
2023,03,27,11,04,7.20
2023,03,27,11,05,7.00
2023,03,27,11,06,6.90
2023,03,27,11,07,6.80
2023,03,27,11,08,6.80
2023,03,27,11,09,6.80
2023,03,27,11,10,6.80
2023,03,27,11,11,6.80
2023,03,27,11,12,6.70
2023,03,27,11,13,6.80
2023,03,27,11,14,6.70
2023,03,27,11,15,6.80
2023,03,27,11,16,6.90
2023,03,27,11,17,7.00
2023,03,27,11,18,7.20
2023,03,27,11,19,7.30
2023,03,27,11,20,7.20
2023,03,27,11,21,7.20
2023,03,27,11,22,7.30
2023,03,27,11,23,7.30
2023,03,27,11,24,7.40
2023,03,27,11,25,7.40
2023,03,27,11,26,7.40
2023,03,27,11,27,7.50
2023,03,27,11,28,7.50
2023,03,27,11,29,7.50
2023,03,27,11,30,7.40
2023,03,27,11,31,7.20
2023,03,27,11,32,7.10
2023,03,27,11,33,7.10
2023,03,27,11,34,7.10
2023,03,27,11,35,7.10
2023,03,27,11,36,7.20
2023,03,27,11,37,7.30
2023,03,27,11,38,7.40
2023,03,27,11,39,7.40
2023,03,27,11,40,7.40
2023,03,27,11,41,7.50
2023,03,27,11,42,7.60
2023,03,27,11,43,7.70
2023,03,27,11,44,7.70
2023,03,27,11,45,7.70
2023,03,27,11,46,7.70
2023,03,27,11,47,7.70
2023,03,27,11,48,7.70
2023,03,27,11,49,7.80
2023,03,27,11,50,7.80
2023,03,27,11,51,7.70
2023,03,27,11,52,7.60
2023,03,27,11,53,7.60
2023,03,27,11,54,7.60
2023,03,27,11,55,7.70
2023,03,27,11,56,7.80
2023,03,27,11,57,7.90
2023,03,27,11,58,7.90
2023,03,27,11,59,7.80
2023,03,27,12,00,7.80
2023,03,27,12,01,7.70
2023,03,27,12,02,7.50
2023,03,27,12,03,7.50
2023,03,27,12,04,7.50
2023,03,27,12,05,7.60
2023,03,27,12,06,7.60
2023,03,27,12,07,7.60
2023,03,27,12,08,7.70
2023,03,27,12,09,7.70
2023,03,27,12,10,7.80
2023,03,27,12,11,7.90
2023,03,27,12,12,7.90
2023,03,27,12,13,8.00
2023,03,27,12,14,8.10
2023,03,27,12,15,8.10
2023,03,27,12,16,8.20
2023,03,27,12,17,8.20
2023,03,27,12,18,8.20
2023,03,27,12,19,8.20
2023,03,27,12,20,8.20
2023,03,27,12,21,8.10
2023,03,27,12,22,8.10
2023,03,27,12,23,8.10
2023,03,27,12,24,8.20
2023,03,27,12,25,8.20
2023,03,27,12,26,8.20
2023,03,27,12,27,8.20
2023,03,27,12,28,8.20
2023,03,27,12,29,8.20
2023,03,27,12,30,8.20
2023,03,27,12,31,8.30
2023,03,27,12,32,8.30
2023,03,27,12,33,8.30
2023,03,27,12,34,8.30
2023,03,27,12,35,8.40
2023,03,27,12,36,8.50
2023,03,27,12,37,8.60
2023,03,27,12,38,8.70
2023,03,27,12,39,8.70
2023,03,27,12,40,8.70
2023,03,27,12,41,8.60
2023,03,27,12,42,8.50
2023,03,27,12,43,8.40
2023,03,27,12,44,8.40
2023,03,27,12,45,8.40
2023,03,27,12,46,8.40
2023,03,27,12,47,8.30
2023,03,27,12,48,8.20
2023,03,27,12,49,8.30
2023,03,27,12,50,8.30
2023,03,27,12,51,8.40
2023,03,27,12,52,8.40
2023,03,27,12,53,8.40
2023,03,27,12,54,8.40
2023,03,27,12,55,8.40
2023,03,27,12,56,8.40
2023,03,27,12,57,8.40
2023,03,27,12,58,8.40
2023,03,27,12,59,8.50
2023,03,27,13,00,8.50
2023,03,27,13,01,8.60
2023,03,27,13,02,8.60
2023,03,27,13,03,8.50
2023,03,27,13,04,8.40
2023,03,27,13,05,8.20
2023,03,27,13,06,8.20
2023,03,27,13,07,8.20
2023,03,27,13,08,8.20
2023,03,27,13,09,8.30
2023,03,27,13,10,8.40
2023,03,27,13,11,8.50
2023,03,27,13,12,8.50
2023,03,27,13,13,8.50
2023,03,27,13,14,8.60
2023,03,27,13,15,8.60
2023,03,27,13,16,8.50
2023,03,27,13,17,8.40
2023,03,27,13,18,8.50
2023,03,27,13,19,8.50
2023,03,27,13,20,8.50
2023,03,27,13,21,8.50
2023,03,27,13,22,8.60
2023,03,27,13,23,8.60
2023,03,27,13,24,8.70
2023,03,27,13,25,8.70
2023,03,27,13,26,8.80
2023,03,27,13,27,8.90
2023,03,27,13,28,8.90
2023,03,27,13,29,9.00
2023,03,27,13,30,9.00
2023,03,27,13,31,9.10
2023,03,27,13,32,9.20
2023,03,27,13,33,9.20
2023,03,27,13,34,9.10
2023,03,27,13,35,9.10
2023,03,27,13,36,9.00
2023,03,27,13,37,9.00
2023,03,27,13,38,9.10
2023,03,27,13,39,9.10
2023,03,27,13,40,9.30
2023,03,27,13,41,9.40
2023,03,27,13,42,9.50
2023,03,27,13,43,9.70
2023,03,27,13,44,9.80
2023,03,27,13,45,9.70
2023,03,27,13,46,9.60
2023,03,27,13,47,9.60
2023,03,27,13,48,9.60
2023,03,27,13,49,9.40
2023,03,27,13,50,9.30
2023,03,27,13,51,9.30
2023,03,27,13,52,9.20
2023,03,27,13,53,9.20
2023,03,27,13,54,9.30
2023,03,27,13,55,9.30
2023,03,27,13,56,9.30
2023,03,27,13,57,9.40
2023,03,27,13,58,9.40
2023,03,27,13,59,9.40
2023,03,27,14,00,9.40
2023,03,27,14,01,9.30
2023,03,27,14,02,9.40
2023,03,27,14,03,9.40
2023,03,27,14,04,9.30
2023,03,27,14,05,9.30
2023,03,27,14,06,9.40
2023,03,27,14,07,9.50
2023,03,27,14,08,9.50
2023,03,27,14,09,9.40
2023,03,27,14,10,9.20
2023,03,27,14,11,9.00
2023,03,27,14,12,8.90
2023,03,27,14,13,9.00
2023,03,27,14,14,9.00
2023,03,27,14,15,9.00
2023,03,27,14,16,9.00
2023,03,27,14,17,9.00
2023,03,27,14,18,9.10
2023,03,27,14,19,9.10
2023,03,27,14,20,9.10
2023,03,27,14,21,9.10
2023,03,27,14,22,9.10
2023,03,27,14,23,9.10
2023,03,27,14,24,9.10
2023,03,27,14,25,9.10
2023,03,27,14,26,9.10
2023,03,27,14,27,9.10
2023,03,27,14,28,9.10
2023,03,27,14,29,9.10
2023,03,27,14,30,9.10
2023,03,27,14,31,9.10
2023,03,27,14,32,9.10
2023,03,27,14,33,9.20
2023,03,27,14,34,9.20
2023,03,27,14,35,9.20
2023,03,27,14,36,9.30
2023,03,27,14,37,9.40
2023,03,27,14,38,9.50
2023,03,27,14,39,9.60
2023,03,27,14,40,9.70
2023,03,27,14,41,9.70
2023,03,27,14,42,9.70
2023,03,27,14,43,9.70
2023,03,27,14,44,9.60
2023,03,27,14,45,9.50
2023,03,27,14,46,9.40
2023,03,27,14,47,9.30
2023,03,27,14,48,9.30
2023,03,27,14,49,9.30
2023,03,27,14,50,9.30
2023,03,27,14,51,9.30
2023,03,27,14,52,9.30
2023,03,27,14,53,9.30
2023,03,27,14,54,9.30
2023,03,27,14,55,9.30
2023,03,27,14,56,9.30
2023,03,27,14,57,9.40
2023,03,27,14,58,9.40
2023,03,27,14,59,9.50
2023,03,27,15,00,9.70
2023,03,27,15,01,9.80
2023,03,27,15,02,9.90
2023,03,27,15,03,9.80
2023,03,27,15,04,9.80
2023,03,27,15,05,9.70
2023,03,27,15,06,9.70
2023,03,27,15,07,9.60
2023,03,27,15,08,9.70
2023,03,27,15,09,9.70
2023,03,27,15,10,9.60
2023,03,27,15,11,9.60
2023,03,27,15,12,9.60
2023,03,27,15,13,9.60
2023,03,27,15,14,9.70
2023,03,27,15,15,9.80
2023,03,27,15,16,9.90
2023,03,27,15,17,10.00
2023,03,27,15,18,10.10
2023,03,27,15,19,10.20
2023,03,27,15,20,10.30
2023,03,27,15,21,10.30
2023,03,27,15,22,10.40
2023,03,27,15,23,10.40
2023,03,27,15,24,10.40
2023,03,27,15,25,10.50
2023,03,27,15,26,10.60
2023,03,27,15,27,10.60
2023,03,27,15,28,10.50
2023,03,27,15,29,10.50
2023,03,27,15,30,10.40
2023,03,27,15,31,10.50
2023,03,27,15,32,10.50
2023,03,27,15,33,10.50
2023,03,27,15,34,10.50
2023,03,27,15,35,10.50
2023,03,27,15,36,10.50
2023,03,27,15,37,10.50
2023,03,27,15,38,10.40
2023,03,27,15,39,10.30
2023,03,27,15,40,10.30
2023,03,27,15,41,10.30
2023,03,27,15,42,10.40
2023,03,27,15,43,10.40
2023,03,27,15,44,10.50
2023,03,27,15,45,10.60
2023,03,27,15,46,10.70
2023,03,27,15,47,10.80
2023,03,27,15,48,10.80
2023,03,27,15,49,11.00
2023,03,27,15,50,11.00
2023,03,27,15,51,11.00
2023,03,27,15,52,11.10
2023,03,27,15,53,11.10
2023,03,27,15,54,11.20
2023,03,27,15,55,11.20
2023,03,27,15,56,11.30
2023,03,27,15,57,11.30
2023,03,27,15,58,11.30
2023,03,27,15,59,11.30
2023,03,27,16,00,11.30
2023,03,27,16,01,11.30
2023,03,27,16,02,11.30
2023,03,27,16,03,11.30
2023,03,27,16,04,11.30
2023,03,27,16,05,11.20
2023,03,27,16,06,11.20
2023,03,27,16,07,11.10
2023,03,27,16,08,11.00
2023,03,27,16,09,10.90
2023,03,27,16,10,10.90
2023,03,27,16,11,10.90
2023,03,27,16,12,10.80
2023,03,27,16,13,10.90
2023,03,27,16,14,10.90
2023,03,27,16,15,10.90
2023,03,27,16,16,10.90
2023,03,27,16,17,10.80
2023,03,27,16,18,10.70
2023,03,27,16,19,10.60
2023,03,27,16,20,10.50
2023,03,27,16,21,10.50
2023,03,27,16,22,10.60
2023,03,27,16,23,10.60
2023,03,27,16,24,10.70
2023,03,27,16,25,10.70
2023,03,27,16,26,10.80
2023,03,27,16,27,10.70
2023,03,27,16,28,10.80
2023,03,27,16,29,10.80
2023,03,27,16,30,10.70
2023,03,27,16,31,10.70
2023,03,27,16,32,10.80
2023,03,27,16,33,10.80
2023,03,27,16,34,10.80
2023,03,27,16,35,10.80
2023,03,27,16,36,10.70
2023,03,27,16,37,10.70
2023,03,27,16,38,10.60
2023,03,27,16,39,10.50
2023,03,27,16,40,10.40
2023,03,27,16,41,10.40
2023,03,27,16,42,10.50
2023,03,27,16,43,10.60
2023,03,27,16,44,10.60
2023,03,27,16,45,10.60
2023,03,27,16,46,10.60
2023,03,27,16,47,10.60
2023,03,27,16,48,10.60
2023,03,27,16,49,10.60
2023,03,27,16,50,10.70
2023,03,27,16,51,10.80
2023,03,27,16,52,10.80
2023,03,27,16,53,10.80
2023,03,27,16,54,10.80
2023,03,27,16,55,10.80
2023,03,27,16,56,10.70
2023,03,27,16,57,10.60
2023,03,27,16,58,10.60
2023,03,27,16,59,10.60
2023,03,27,17,00,10.60
2023,03,27,17,01,10.60
2023,03,27,17,02,10.60
2023,03,27,17,03,10.60
2023,03,27,17,04,10.70
2023,03,27,17,05,10.70
2023,03,27,17,06,10.70
2023,03,27,17,07,10.70
2023,03,27,17,08,10.70
2023,03,27,17,09,10.70
2023,03,27,17,10,10.80
2023,03,27,17,11,10.80
2023,03,27,17,12,10.80
2023,03,27,17,13,10.80
2023,03,27,17,14,10.90
2023,03,27,17,15,10.90
2023,03,27,17,16,11.00
2023,03,27,17,17,11.00
2023,03,27,17,18,11.00
2023,03,27,17,19,11.00
2023,03,27,17,20,10.90
2023,03,27,17,21,10.80
2023,03,27,17,22,10.80
2023,03,27,17,23,10.70
2023,03,27,17,24,10.60
2023,03,27,17,25,10.50
2023,03,27,17,26,10.50
2023,03,27,17,27,10.40
2023,03,27,17,28,10.30
2023,03,27,17,29,10.30
2023,03,27,17,30,10.30
2023,03,27,17,31,10.30
2023,03,27,17,32,10.30
2023,03,27,17,33,10.30
2023,03,27,17,34,10.30
2023,03,27,17,35,10.20
2023,03,27,17,36,10.20
2023,03,27,17,37,10.20
2023,03,27,17,38,10.20
2023,03,27,17,39,10.20
2023,03,27,17,40,10.10
2023,03,27,17,41,10.10
2023,03,27,17,42,10.10
2023,03,27,17,43,10.10
2023,03,27,17,44,10.00
2023,03,27,17,45,10.00
2023,03,27,17,46,9.90
2023,03,27,17,47,9.80
2023,03,27,17,48,9.80
2023,03,27,17,49,9.70
2023,03,27,17,50,9.60
2023,03,27,17,51,9.50
2023,03,27,17,52,9.40
2023,03,27,17,53,9.30
2023,03,27,17,54,9.30
2023,03,27,17,55,9.20
2023,03,27,17,56,9.10
2023,03,27,17,57,9.10
2023,03,27,17,58,9.00
2023,03,27,17,59,9.00